• In Deutschland
  • Länderverzeichnis
  • Für 7 Tage
  • Wassertemperatur
  • Satellitenkarten
  • Wetterkarte
  • Widgets
  • user-avatar
    Anmelden

    Stündliche Wetter Oberhausen

    Heute, 23 Oktober, Montag

    Zeit Temperatur Niederschläge Wind Luftdruck Luftfeuchtigkeit
    00:00 +10°C° 0 mm 4 m/S 758 mmHg 83%
    01:00 +8°C° 0 mm 4 m/S 758 mmHg 83%
    02:00 +8°C° 0 mm 5 m/S 758 mmHg 84%
    03:00 +8°C° 0 mm 5 m/S 758 mmHg 84%
    04:00 +8°C° 0 mm 5 m/S 759 mmHg 85%
    05:00 +8°C° 0 mm 4 m/S 759 mmHg 86%
    06:00 +8°C° 0 mm 4 m/S 759 mmHg 87%
    07:00 +9°C° 0 mm 5 m/S 759 mmHg 85%
    08:00 +9°C° 0 mm 5 m/S 759 mmHg 83%
    09:00 +10°C° 0 mm 5 m/S 759 mmHg 80%
    10:00 +12°C° 0,1 mm 5 m/S 759 mmHg 78%
    11:00 +12°C° 0,1 mm 5 m/S 760 mmHg 75%
    12:00 +13°C° 0 mm 4 m/S 760 mmHg 74%
    13:00 +13°C° 0,1 mm 4 m/S 760 mmHg 74%
    14:00 +13°C° 0,1 mm 4 m/S 760 mmHg 74%
    15:00 +13°C° 0,1 mm 4 m/S 760 mmHg 74%
    16:00 +13°C° 0 mm 4 m/S 761 mmHg 79%
    17:00 +12°C° 0 mm 3 m/S 761 mmHg 84%
    18:00 +11°C° 0 mm 3 m/S 762 mmHg 88%
    19:00 +11°C° 0 mm 3 m/S 762 mmHg 89%
    20:00 +11°C° 0 mm 3 m/S 762 mmHg 90%
    21:00 +11°C° 0 mm 3 m/S 762 mmHg 91%
    22:00 +11°C° 0 mm 3 m/S 762 mmHg 91%
    23:00 +11°C° 0 mm 3 m/S 762 mmHg 91%

    Morgen, 24 Oktober, Dienstag

    Zeit Temperatur Niederschläge Wind Luftdruck Luftfeuchtigkeit
    00:00 +11°C° 0 mm 3 m/S 763 mmHg 91%
    01:00 +11°C° 0,1 mm 3 m/S 762 mmHg 91%
    02:00 +12°C° 0,1 mm 3 m/S 762 mmHg 91%
    03:00 +12°C° 0,1 mm 3 m/S 762 mmHg 91%
    04:00 +12°C° 0,1 mm 3 m/S 762 mmHg 91%
    05:00 +12°C° 0,1 mm 3 m/S 762 mmHg 91%
    06:00 +12°C° 0,1 mm 3 m/S 762 mmHg 92%
    07:00 +13°C° 0 mm 3 m/S 762 mmHg 91%
    08:00 +13°C° 0 mm 4 m/S 762 mmHg 90%
    09:00 +14°C° 0 mm 4 m/S 762 mmHg 89%
    10:00 +14°C° 0,3 mm 4 m/S 762 mmHg 88%
    11:00 +15°C° 0,3 mm 4 m/S 762 mmHg 87%
    12:00 +15°C° 0,3 mm 4 m/S 762 mmHg 87%
    13:00 +15°C° 0,8 mm 4 m/S 762 mmHg 88%
    14:00 +15°C° 0,8 mm 4 m/S 762 mmHg 89%
    15:00 +15°C° 0,8 mm 5 m/S 762 mmHg 91%
    16:00 +15°C° 0 mm 4 m/S 762 mmHg 91%
    17:00 +15°C° 0 mm 4 m/S 762 mmHg 92%
    18:00 +15°C° 0 mm 4 m/S 762 mmHg 92%
    19:00 +15°C° 0 mm 4 m/S 762 mmHg 92%
    20:00 +15°C° 0 mm 4 m/S 762 mmHg 92%
    21:00 +15°C° 0 mm 4 m/S 762 mmHg 92%
    22:00 +15°C° 0 mm 4 m/S 762 mmHg 92%
    23:00 +15°C° 0 mm 4 m/S 762 mmHg 92%

    übermorgen, 25 Oktober, Mittwoch

    Zeit Temperatur Niederschläge Wind Luftdruck Luftfeuchtigkeit
    00:00 +14°C° 0 mm 4 m/S 762 mmHg 92%
    01:00 +14°C° 0 mm 4 m/S 762 mmHg 91%
    02:00 +14°C° 0 mm 4 m/S 762 mmHg 91%
    03:00 +14°C° 0 mm 5 m/S 762 mmHg 91%
    04:00 +14°C° 0 mm 4 m/S 762 mmHg 90%
    05:00 +14°C° 0 mm 4 m/S 762 mmHg 89%
    06:00 +15°C° 0 mm 4 m/S 762 mmHg 89%
    07:00 +15°C° 0 mm 5 m/S 762 mmHg 87%
    08:00 +15°C° 0 mm 5 m/S 762 mmHg 85%
    09:00 +16°C° 0 mm 5 m/S 763 mmHg 82%
    10:00 +16°C° 0 mm 5 m/S 763 mmHg 82%
    11:00 +16°C° 0 mm 5 m/S 763 mmHg 81%
    12:00 +17°C° 0 mm 4 m/S 763 mmHg 81%
    13:00 +17°C° 0 mm 4 m/S 763 mmHg 82%
    14:00 +17°C° 0 mm 4 m/S 764 mmHg 83%
    15:00 +17°C° 0 mm 3 m/S 764 mmHg 84%
    16:00 +16°C° 0 mm 3 m/S 764 mmHg 85%
    17:00 +16°C° 0 mm 3 m/S 764 mmHg 87%
    18:00 +16°C° 0 mm 3 m/S 765 mmHg 89%
    19:00 +15°C° 0 mm 2 m/S 765 mmHg 90%
    20:00 +15°C° 0 mm 2 m/S 765 mmHg 90%
    21:00 +15°C° 0 mm 2 m/S 765 mmHg 91%
    22:00 +15°C° 0 mm 2 m/S 765 mmHg 91%
    23:00 +14°C° 0 mm 2 m/S 765 mmHg 91%

    26 Oktober, Donnerstag

    Zeit Temperatur Niederschläge Wind Luftdruck Luftfeuchtigkeit
    00:00 +14°C° 0 mm 2 m/S 765 mmHg 91%
    01:00 +14°C° 0 mm 2 m/S 765 mmHg 91%
    02:00 +13°C° 0 mm 2 m/S 765 mmHg 91%
    03:00 +13°C° 0 mm 2 m/S 764 mmHg 91%
    04:00 +13°C° 0 mm 2 m/S 764 mmHg 91%
    05:00 +13°C° 0 mm 2 m/S 764 mmHg 91%
    06:00 +12°C° 0 mm 2 m/S 764 mmHg 91%
    07:00 +12°C° 0 mm 3 m/S 764 mmHg 88%
    08:00 +13°C° 0 mm 3 m/S 764 mmHg 86%
    09:00 +14°C° 0 mm 3 m/S 764 mmHg 83%
    10:00 +16°C° 0 mm 3 m/S 764 mmHg 80%
    11:00 +18°C° 0 mm 3 m/S 764 mmHg 76%
    12:00 +19°C° 0 mm 3 m/S 764 mmHg 72%
    13:00 +19°C° 0 mm 3 m/S 764 mmHg 73%
    14:00 +18°C° 0 mm 3 m/S 763 mmHg 73%
    15:00 +18°C° 0 mm 3 m/S 763 mmHg 74%
    16:00 +17°C° 0 mm 2 m/S 763 mmHg 77%
    17:00 +16°C° 0 mm 2 m/S 764 mmHg 81%
    18:00 +15°C° 0 mm 2 m/S 764 mmHg 84%
    19:00 +15°C° 0 mm 2 m/S 764 mmHg 86%
    20:00 +15°C° 0 mm 2 m/S 764 mmHg 88%
    21:00 +14°C° 0 mm 2 m/S 764 mmHg 89%
    22:00 +14°C° 0 mm 2 m/S 764 mmHg 91%
    23:00 +14°C° 0 mm 2 m/S 764 mmHg 92%

    27 Oktober, Freitag

    Zeit Temperatur Niederschläge Wind Luftdruck Luftfeuchtigkeit
    00:00 +13°C° 0 mm 3 m/S 764 mmHg 93%
    01:00 +13°C° 0 mm 3 m/S 763 mmHg 93%
    02:00 +13°C° 0 mm 3 m/S 763 mmHg 94%
    03:00 +13°C° 0 mm 3 m/S 763 mmHg 94%
    04:00 +13°C° 0,2 mm 3 m/S 763 mmHg 94%
    05:00 +13°C° 0,2 mm 3 m/S 762 mmHg 93%
    06:00 +13°C° 0,2 mm 3 m/S 762 mmHg 93%
    07:00 +12°C° 1,5 mm 3 m/S 762 mmHg 92%
    08:00 +12°C° 1,5 mm 4 m/S 762 mmHg 90%
    09:00 +12°C° 1,5 mm 4 m/S 762 mmHg 89%
    10:00 +12°C° 1 mm 4 m/S 763 mmHg 86%
    11:00 +12°C° 1 mm 4 m/S 763 mmHg 83%
    12:00 +12°C° 1 mm 4 m/S 763 mmHg 80%
    13:00 +12°C° 0,1 mm 4 m/S 763 mmHg 77%
    14:00 +12°C° 0,1 mm 5 m/S 763 mmHg 75%
    15:00 +12°C° 0,1 mm 5 m/S 763 mmHg 72%
    16:00 +12°C° 0 mm 4 m/S 764 mmHg 75%
    17:00 +11°C° 0 mm 4 m/S 764 mmHg 78%
    18:00 +10°C° 0 mm 4 m/S 765 mmHg 81%
    19:00 +10°C° 0 mm 4 m/S 765 mmHg 83%
    20:00 +10°C° 0 mm 3 m/S 765 mmHg 85%
    21:00 +9°C° 0 mm 3 m/S 765 mmHg 87%
    22:00 +9°C° 0,1 mm 3 m/S 765 mmHg 86%
    23:00 +10°C° 0,1 mm 3 m/S 765 mmHg 86%

    28 Oktober, Samstag

    Zeit Temperatur Niederschläge Wind Luftdruck Luftfeuchtigkeit
    00:00 +10°C° 0,1 mm 4 m/S 765 mmHg 85%
    01:00 +8°C° 0,1 mm 4 m/S 765 mmHg 85%
    02:00 +8°C° 0,1 mm 4 m/S 764 mmHg 85%
    03:00 +8°C° 0,1 mm 4 m/S 764 mmHg 84%
    04:00 +8°C° 0 mm 4 m/S 764 mmHg 84%
    05:00 +8°C° 0 mm 4 m/S 763 mmHg 83%
    06:00 +8°C° 0 mm 4 m/S 763 mmHg 82%
    07:00 +9°C° 0,1 mm 5 m/S 763 mmHg 82%
    08:00 +9°C° 0,1 mm 5 m/S 763 mmHg 82%
    09:00 +9°C° 0,1 mm 5 m/S 763 mmHg 81%
    10:00 +10°C° 0,2 mm 5 m/S 762 mmHg 81%
    11:00 +10°C° 0,2 mm 5 m/S 762 mmHg 81%
    12:00 +10°C° 0,2 mm 5 m/S 762 mmHg 81%
    13:00 +10°C° 0,1 mm 5 m/S 762 mmHg 81%
    14:00 +10°C° 0,1 mm 5 m/S 761 mmHg 81%
    15:00 +10°C° 0,1 mm 5 m/S 761 mmHg 81%
    16:00 +10°C° 0,1 mm 5 m/S 761 mmHg 83%
    17:00 +10°C° 0,1 mm 5 m/S 761 mmHg 84%
    18:00 +11°C° 0,1 mm 4 m/S 761 mmHg 86%
    19:00 +11°C° 0,1 mm 4 m/S 761 mmHg 86%
    20:00 +11°C° 0,1 mm 4 m/S 762 mmHg 87%
    21:00 +11°C° 0,1 mm 4 m/S 762 mmHg 87%
    22:00 +11°C° 0,1 mm 4 m/S 762 mmHg 87%
    23:00 +11°C° 0,1 mm 4 m/S 762 mmHg 87%

    29 Oktober, Sonntag

    Zeit Temperatur Niederschläge Wind Luftdruck Luftfeuchtigkeit
    00:00 +11°C° 0,1 mm 4 m/S 762 mmHg 87%
    01:00 +11°C° 0,1 mm 4 m/S 762 mmHg 88%
    02:00 +11°C° 0,1 mm 4 m/S 761 mmHg 88%
    03:00 +11°C° 0,1 mm 3 m/S 761 mmHg 88%
    04:00 +11°C° 0,1 mm 3 m/S 761 mmHg 89%
    05:00 +11°C° 0,1 mm 3 m/S 761 mmHg 90%
    06:00 +11°C° 0,1 mm 3 m/S 761 mmHg 90%
    07:00 +11°C° 0,1 mm 4 m/S 761 mmHg 90%
    08:00 +11°C° 0,1 mm 4 m/S 761 mmHg 90%
    09:00 +11°C° 0,1 mm 4 m/S 760 mmHg 90%
    10:00 +11°C° 0,3 mm 4 m/S 760 mmHg 89%
    11:00 +10°C° 0,3 mm 5 m/S 759 mmHg 88%
    12:00 +10°C° 0,3 mm 5 m/S 759 mmHg 87%
    13:00 +10°C° 0,6 mm 5 m/S 758 mmHg 86%
    14:00 +10°C° 0,6 mm 5 m/S 758 mmHg 85%
    15:00 +10°C° 0,6 mm 5 m/S 757 mmHg 84%
    16:00 +11°C° 0,1 mm 4 m/S 757 mmHg 85%
    17:00 +11°C° 0,1 mm 4 m/S 757 mmHg 86%
    18:00 +11°C° 0,1 mm 4 m/S 756 mmHg 87%
    19:00 +11°C° 0,1 mm 4 m/S 756 mmHg 88%
    20:00 +11°C° 0,1 mm 4 m/S 756 mmHg 90%
    21:00 +11°C° 0,1 mm 4 m/S 756 mmHg 91%
    22:00 +11°C° 0 mm 4 m/S 756 mmHg 89%
    23:00 +10°C° 0 mm 4 m/S 756 mmHg 88%
    Mehr zeigen